GW0064 Weather Reports


time (UTC)temp
C
wind
direction
speed
KPH
gust
KPH
rain 1hr
cm
rain 24hr
cm
rain mn
cm
humidity
%
barometer
mb
20260509064500 12 236 4.8 9.7 0.00 0.41 0.00 93 1008.0
20260509064001 12 273 4.8 9.7 0.00 0.41 0.00 93 1008.1
20260509063500 12 214 4.8 9.7 0.00 0.41 0.00 93 1008.1
20260509063000 12 237 4.8 9.7 0.00 0.41 0.00 93 1008.1
20260509062500 12 172 4.8 9.7 0.00 0.41 0.00 93 1008.3
20260509062001 12 226 6.4 9.7 0.00 0.41 0.00 93 1008.2
20260509061001 12 163 4.8 9.7 0.00 0.41 0.00 93 1008.4
20260509060502 12 211 4.8 9.7 0.00 0.41 0.00 93 1008.4
20260509060005 12 234 3.2 8.0 0.00 0.41 0.00 93 1008.5
20260509055000 12 231 4.8 9.7 0.00 0.41 0.00 92 1008.5
20260509054500 12 214 6.4 9.7 0.00 0.41 0.00 92 1008.5
20260509054001 12 221 4.8 9.7 0.00 0.41 0.00 92 1008.5
20260509053500 12 223 4.8 11.3 0.00 0.41 0.00 92 1008.5
20260509052001 12 212 4.8 9.7 0.00 0.41 0.00 92 1008.7
20260509051500 12 233 1.6 8.0 0.00 0.41 0.00 92 1008.6
20260509051000 12 167 3.2 9.7 0.00 0.41 0.00 91 1008.6
20260509050500 12 218 4.8 9.7 0.00 0.41 0.00 1008.5
20260509050005 12 197 4.8 8.0 0.00 0.41 0.00 91 1008.5
20260509045501 12 189 3.2 8.0 0.00 0.41 0.00 91 1008.4
20260509045004 12 223 3.2 9.7 0.00 0.41 0.00 91 1008.5
20260509044502 12 242 4.8 9.7 0.00 0.41 0.00 91 1008.5
20260509044003 12 203 3.2 8.0 0.00 0.41 0.00 91 1008.5
20260509043501 12 157 4.8 8.0 0.00 0.41 0.00 91 1008.5
20260509043001 12 206 1.6 11.3 0.00 0.41 0.00 91 1008.6
20260509042503 12 184 6.4 11.3 0.00 0.41 0.00 92 1008.5
20260509042004 12 210 6.4 11.3 0.00 0.41 0.00 92 1008.6
20260509041502 -17 210 3.2 9.7 0.00 0.41 0.00 1008.6
20260509041001 12 216 3.2 9.7 0.00 0.41 0.00 92 1008.6
20260509040007 12 185 4.8 9.7 0.00 0.41 0.00 92 1008.5
20260509035503 -17 223 3.2 8.0 0.00 0.41 0.41 1008.5
20260509034502 12 225 3.2 8.0 0.00 0.41 0.41 1008.5
20260509034002 12 240 3.2 6.4 0.00 0.41 0.41 93 1008.6
20260509033504 12 204 3.2 4.8 0.00 0.41 0.41 93 1008.7
20260509033003 12 225 1.6 4.8 0.00 0.41 0.41 93 1008.6
20260509032502 12 169 1.6 4.8 0.00 0.41 0.41 93 1008.5
20260509032004 12 169 0.0 4.8 0.00 0.41 0.41 93 1008.5
20260509031503 12 139 0.0 1.6 0.00 0.41 0.41 93 1008.5
20260509031002 12 139 0.0 4.8 0.00 0.41 0.41 93 1008.5
20260509030006 12 208 1.6 3.2 0.00 0.41 0.41 93 1008.7
20260509025504 12 219 3.2 6.4 0.00 0.41 0.41 93 1008.8
20260509025002 12 182 1.6 6.4 0.00 0.41 0.41 92 1008.8
20260509024503 12 207 3.2 4.8 0.00 0.41 0.41 92 1008.9
20260509024002 12 193 1.6 4.8 0.00 0.41 0.41 92 1008.7
20260509023502 12 214 1.6 6.4 0.00 0.41 0.41 92 1008.7
20260509023003 12 229 3.2 6.4 0.00 0.41 0.41 92 1008.9
20260509022502 12 185 1.6 4.8 0.00 0.41 0.41 92 1008.9
20260509021502 12 256 3.2 6.4 0.00 0.41 0.41 92 1008.9
20260509021002 12 200 3.2 6.4 0.00 0.41 0.41 92 1008.9
20260509020502 12 201 3.2 8.0 0.00 0.41 0.41 92 1008.9
20260509020007 12 218 3.2 8.0 0.00 0.41 0.41 91 1008.8
20260509015002 12 242 1.6 6.4 0.00 0.41 0.41 91 1008.8
20260509014003 12 229 3.2 8.0 0.00 0.41 0.41 91 1008.7
20260509013002 12 236 4.8 9.7 0.00 0.41 0.41 91 1008.8
20260509012504 12 232 4.8 9.7 0.00 0.41 0.41 91 1008.7
20260509012004 12 224 3.2 8.0 0.00 0.41 0.41 92 1008.7
20260509011002 12 239 3.2 8.0 0.00 0.41 0.41 92 1008.7
20260509010502 12 216 3.2 8.0 0.00 0.41 0.41 92 1008.7
20260509010006 12 203 3.2 6.4 0.00 0.41 0.41 92 1008.7
20260509005502 12 231 3.2 9.7 0.00 0.41 0.41 92 1008.7
20260509005003 12 217 4.8 9.7 0.00 0.41 0.41 92 1008.7
20260509004503 12 189 3.2 6.4 0.00 0.41 0.41 92 1008.6
20260509004003 12 212 4.8 6.4 0.00 0.41 0.41 93 1008.7
20260509003503 12 203 3.2 4.8 0.00 0.41 0.41 93 1008.6
20260509003000 12 153 3.2 4.8 0.00 0.41 0.41 93 1008.7
20260509002002 12 157 3.2 6.4 0.00 0.41 0.41 93 1008.7
20260509001503 12 195 3.2 6.4 0.00 0.41 0.41 92 1008.8
20260509001002 12 170 3.2 8.0 0.00 0.41 0.41 92 1008.9
20260509000502 12 185 4.8 8.0 0.00 0.41 0.41 92 1009.0
20260509000005 12 155 3.2 8.0 0.00 0.41 0.41 92 1009.1
20260508235502 12 197 4.8 8.0 0.00 0.41 0.41 92 1009.0
20260508234502 12 181 4.8 8.0 0.00 0.41 0.41 91 1009.0
20260508234002 12 211 3.2 8.0 0.00 0.41 0.41 91 1009.1
20260508233003 12 201 3.2 9.7 0.00 0.41 0.41 91 1009.1
20260508232502 12 227 1.6 8.0 0.00 0.41 0.41 91 1009.0
20260508232003 12 165 4.8 8.0 0.00 0.41 0.41 90 1009.0
20260508231503 12 219 4.8 8.0 0.00 0.41 0.41 90 1009.2
20260508231002 12 252 3.2 9.7 0.00 0.41 0.41 90 1009.1
20260508230502 12 169 3.2 11.3 0.03 0.41 0.41 90 1009.1
20260508230004 12 255 4.8 11.3 0.03 0.41 0.41 90 1009.1
20260508225503 12 209 3.2 9.7 0.03 0.43 0.41 90 1009.1
20260508224501 12 138 4.8 11.3 0.05 0.43 0.41 91 1009.1
20260508224004 12 160 6.4 11.3 0.05 0.43 0.41 91 1008.9
20260508223504 12 213 4.8 14.5 0.05 0.43 0.41 91 1009.1
20260508223002 12 213 8.0 14.5 0.08 0.43 0.41 91 1009.2
20260508222502 12 206 8.0 12.9 0.10 0.43 0.41 91 1009.2
20260508222002 12 207 4.8 9.7 0.10 0.43 0.41 91 1009.2
20260508221004 12 221 3.2 8.0 0.13 0.43 0.41 92 1009.2
20260508220501 12 195 1.6 8.0 0.10 0.41 0.38 92 1009.1
20260508220006 12 209 3.2 6.4 0.13 0.41 0.38 91 1009.0
20260508215002 12 148 4.8 11.3 0.15 0.41 0.38 91 1009.0
20260508214002 12 229 4.8 11.3 0.15 0.38 0.36 91 1009.1
20260508213503 12 150 3.2 6.4 0.13 0.36 0.33 91 1009.0
20260508213003 13 169 3.2 9.7 0.15 0.36 0.33 91 1009.3
20260508212502 13 235 4.8 9.7 0.15 0.33 0.30 90 1009.3
20260508212003 13 234 4.8 11.3 0.15 0.33 0.30 90 1009.4
20260508211003 13 277 4.8 12.9 0.15 0.30 0.28 90 1009.5
20260508210502 13 262 6.4 12.9 0.15 0.30 0.28 90 1009.7
20260508210006 13 281 8.0 12.9 0.13 0.28 0.25 89 1009.6
20260508205002 13 280 6.4 14.5 0.13 0.25 0.23 89 1009.8
20260508204502 13 290 8.0 14.5 0.10 0.23 0.20 89 1009.8
20260508204002 13 300 6.4 12.9 0.13 0.23 0.20 89 1009.8
20260508203502 13 303 6.4 11.3 0.15 0.23 0.20 88 1009.8
20260508203002 13 297 6.4 11.3 0.15 0.20 0.18 87 1009.8
20260508202503 13 302 8.0 12.9 0.13 0.18 0.15 87 1009.9
20260508202002 13 289 8.0 12.9 0.13 0.15 0.13 87 1009.9
20260508201502 13 296 4.8 9.7 0.13 0.15 0.13 86 1009.9
20260508201004 13 262 3.2 8.0 0.13 0.15 0.13 86 1009.9
20260508200502 13 259 3.2 9.7 0.13 0.15 0.13 85 1009.9
20260508200007 13 243 4.8 9.7 0.13 0.15 0.13 86 1010.0
20260508195502 13 283 6.4 11.3 0.13 0.15 0.13 85 1010.1
20260508195005 13 266 6.4 12.9 0.10 0.13 0.10 86 1010.4
20260508194501 13 284 8.0 16.1 0.10 0.13 0.10 84 1010.5
20260508194002 13 275 9.7 16.1 0.08 0.10 0.08 82 1010.6
20260508193501 14 284 11.3 16.1 0.05 0.08 0.05 78 1010.5
20260508193003 15 285 9.7 19.3 0.03 0.05 0.03 74 1010.4
20260508192502 15 300 9.7 19.3 0.00 0.03 0.00 73 1010.4
20260508192003 -17 250 9.7 20.9 0.00 0.03 0.00 100 1010.2
20260508191501 16 229 11.3 20.9 0.00 0.03 0.00 68 1010.2
20260508190501 16 271 9.7 20.9 0.00 0.03 0.00 63 1010.2
20260508190006 16 221 12.9 20.9 0.00 0.03 0.00 62 1010.2
20260508185502 16 260 12.9 20.9 0.00 0.03 0.00 63 1010.3
20260508185002 16 266 16.1 24.1 0.00 0.03 0.00 1010.3
20260508184503 16 267 14.5 25.7 0.00 0.03 0.00 62 1010.5
20260508184002 16 241 14.5 25.7 0.00 0.03 0.00 1010.5
20260508183002 -17 243 16.1 24.1 0.00 0.03 0.00 100 1010.5
20260508182503 17 240 16.1 25.7 0.00 0.03 0.00 60 1010.5
20260508182002 17 262 19.3 25.7 0.00 0.03 0.00 58 1010.6
20260508181501 17 253 17.7 29.0 0.00 0.03 0.00 58 1010.4
20260508181002 -17 226 14.5 29.0 0.00 0.03 0.00 1010.4
20260508180503 -17 236 12.9 29.0 0.00 0.03 0.00 1010.5
20260508180006 -17 246 19.3 29.0 0.00 0.03 0.00 1010.5
20260508175504 -17 243 20.9 29.0 0.00 0.03 0.00 1010.5
20260508175003 -17 255 17.7 27.4 0.00 0.03 0.00 1010.5
20260508174502 -17 276 16.1 27.4 0.00 0.03 0.00 1010.6
20260508174004 -17 248 17.7 27.4 0.00 0.03 0.00 1010.6
20260508173502 -17 254 12.9 22.5 0.00 0.03 0.00 1010.6
20260508173002 -17 231 12.9 27.4 0.00 0.03 0.00 1010.6
20260508172502 -17 246 12.9 29.0 0.00 0.03 0.00 1010.5
20260508172003 -17 256 14.5 29.0 0.00 0.03 0.00 1010.6
20260508171501 18 186 12.9 22.5 0.00 0.03 0.00 57 1010.7
20260508170502 -17 258 12.9 24.1 0.00 0.03 0.00 1010.9
20260508170006 -17 203 12.9 25.7 0.00 0.03 0.00 1011.0
20260508165502 -17 215 16.1 25.7 0.00 0.03 0.00 1011.2
20260508165004 -17 201 12.9 22.5 0.00 0.03 0.00 1011.4
20260508164500 -17 230 12.9 24.1 0.00 0.03 0.00 1011.6
20260508164003 -17 258 14.5 24.1 0.00 0.03 0.00 1011.7
20260508163002 -17 223 14.5 24.1 0.00 0.03 0.00 1011.7
20260508162500 -17 219 12.9 24.1 0.00 0.03 0.00 59 1011.8
20260508162001 17 239 12.9 19.3 0.00 0.03 0.00 59 1011.8
20260508161501 -17 253 12.9 19.3 0.00 0.03 0.00 1011.8
20260508161003 -17 240 9.7 22.5 0.00 0.03 0.00 1011.9
20260508160500 -17 230 16.1 22.5 0.00 0.03 0.00 1012.1
20260508160005 -17 211 14.5 20.9 0.00 0.03 0.00 1012.1
20260508155503 -17 240 16.1 20.9 0.00 0.03 0.00 1012.1
20260508154502 -17 205 11.3 22.5 0.00 0.03 0.00 1012.1
20260508154001 -17 200 12.9 22.5 0.00 0.03 0.00 1012.2
20260508153502 -17 227 12.9 20.9 0.00 0.03 0.00 1012.1
20260508153001 -17 212 14.5 19.3 0.00 0.03 0.00 1012.1
20260508152501 -17 240 8.0 12.9 0.00 0.03 0.00 1012.1
20260508152001 -17 244 9.7 12.9 0.00 0.03 0.00 1012.1
20260508151502 -17 261 8.0 14.5 0.00 0.03 0.00 1012.2
20260508150503 -17 213 8.0 12.9 0.00 0.03 0.00 1012.3
20260508150005 -17 259 6.4 16.1 0.00 0.03 0.00 1012.5
20260508145502 -17 269 9.7 20.9 0.00 0.03 0.00 1012.4
20260508144000 -17 245 11.3 19.3 0.00 0.03 0.00 1012.6
20260508143504 -17 232 8.0 19.3 0.00 0.03 0.00 1012.6
20260508143000 -17 219 8.0 14.5 0.00 0.03 0.00 1012.7
20260508142500 -17 254 4.8 17.7 0.00 0.03 0.00 1012.7
20260508142001 -17 256 9.7 20.9 0.00 0.03 0.00 1012.8
20260508141502 -17 227 12.9 20.9 0.00 0.03 0.00 1012.9
20260508141002 -17 171 11.3 19.3 0.00 0.03 0.00 1012.9
20260508140500 -17 248 11.3 19.3 0.00 0.03 0.00 1012.9
20260508140004 -17 264 9.7 16.1 0.00 0.03 0.00 1013.0
20260508135002 -17 257 11.3 17.7 0.00 0.03 0.00 1013.3
20260508134501 -17 250 8.0 14.5 0.00 0.03 0.00 1013.3
20260508134001 -17 227 8.0 16.1 0.00 0.03 0.00 1013.3
20260508133501 -17 239 6.4 16.1 0.00 0.03 0.00 1013.3
20260508133003 -17 243 11.3 16.1 0.00 0.03 0.00 1013.3
20260508132500 -17 241 6.4 14.5 0.00 0.03 0.00 1013.2
20260508132000 -17 231 6.4 14.5 0.00 0.03 0.00 1013.1
20260508131500 -17 246 9.7 14.5 0.00 0.03 0.00 1013.3
20260508131002 -17 259 8.0 12.9 0.00 0.03 0.00 1013.3
20260508130501 -17 257 4.8 11.3 0.00 0.03 0.00 1013.2
20260508130003 -17 205 6.4 11.3 0.00 0.03 0.00 1013.2
20260508125502 -17 221 3.2 9.7 0.00 0.03 0.00 1013.3
20260508125002 -17 188 3.2 8.0 0.00 0.03 0.00 1013.3
20260508124000 -17 238 1.6 6.4 0.00 0.03 0.00 1013.3
20260508123500 -17 205 3.2 6.4 0.00 0.03 0.00 1013.4
20260508123002 -17 200 3.2 6.4 0.00 0.03 0.00 1013.3
20260508122501 -17 195 3.2 6.4 0.00 0.03 0.00 1013.2
20260508122001 -17 180 3.2 4.8 0.00 0.03 0.00 1013.3
20260508121500 -17 221 1.6 4.8 0.00 0.03 0.00 1013.2
20260508120500 -17 155 1.6 3.2 0.00 0.03 0.00 1013.2
20260508120004 -17 219 0.0 3.2 0.00 0.03 0.00 1013.2
20260508115501 -17 145 1.6 4.8 0.00 0.03 0.00 1013.1
20260508115003 -17 143 3.2 4.8 0.00 0.03 0.00 1013.1
20260508114501 -17 180 1.6 3.2 0.00 0.03 0.00 1013.2
20260508114000 -17 160 1.6 4.8 0.00 0.03 0.00 1013.3
20260508113500 -17 222 3.2 4.8 0.00 0.03 0.00 1013.3
20260508112501 -17 205 0.0 3.2 0.00 0.03 0.00 1013.2
20260508112001 -17 203 1.6 3.2 0.00 0.03 0.00 1013.3
20260508111500 -17 191 0.0 3.2 0.00 0.03 0.00 1013.1
20260508111003 -17 191 1.6 3.2 0.00 0.03 0.00 1013.2
20260508110501 -17 212 1.6 3.2 0.00 0.03 0.00 1013.2
20260508110003 -17 225 1.6 3.2 0.00 0.03 0.00 1013.2
20260508105500 -17 157 1.6 3.2 0.00 0.03 0.00 1013.1
20260508105001 -17 221 1.6 3.2 0.00 0.03 0.00 1013.1
20260508104501 -17 212 0.0 3.2 0.00 0.03 0.00 1013.1
20260508104000 -17 212 0.0 3.2 0.00 0.03 0.00 1012.9
20260508103500 -17 239 1.6 4.8 0.00 0.03 0.00 1013.1
20260508103002 -17 251 1.6 4.8 0.00 0.03 0.00 1013.0
20260508102500 -17 266 1.6 3.2 0.00 0.03 0.00 1013.0
20260508102000 -17 262 0.0 4.8 0.00 0.03 0.00 1013.0
20260508101501 -17 274 1.6 4.8 0.00 0.03 0.00 1013.0
20260508100500 -17 282 1.6 6.4 0.00 0.03 0.00 1013.0
20260508100004 -17 276 3.2 12.9 0.00 0.03 0.00 1013.0
20260508095500 -17 279 4.8 12.9 0.00 0.03 0.00 1013.2
20260508095002 -17 293 6.4 9.7 0.00 0.03 0.00 1013.2
20260508094500 -17 290 4.8 11.3 0.00 0.03 0.00 1013.3
20260508094002 -17 271 4.8 11.3 0.00 0.03 0.00 1013.2
20260508093501 -17 318 6.4 9.7 0.00 0.03 0.00 1013.3
20260508093001 -17 309 4.8 11.3 0.00 0.03 0.00 1013.3
20260508092002 -17 344 9.7 16.1 0.00 0.03 0.00 1013.4
20260508091001 -17 228 4.8 11.3 0.00 0.03 0.00 1012.6
20260508090501 -17 214 4.8 11.3 0.00 0.03 0.00 1012.6
20260508090005 -17 219 6.4 11.3 0.00 0.03 0.00 1012.7
20260508085500 -17 213 4.8 11.3 0.00 0.03 0.00 1012.6
20260508085001 -17 186 4.8 11.3 0.00 0.03 0.00 1012.6
20260508084501 -17 179 3.2 9.7 0.00 0.03 0.00 1012.6
20260508083502 -17 200 6.4 12.9 0.00 0.03 0.00 1012.6
20260508083000 -17 224 6.4 12.9 0.00 0.03 0.00 1012.8
20260508082500 -17 232 8.0 14.5 0.00 0.03 0.00 1012.8
20260508082002 -17 222 6.4 12.9 0.00 0.03 0.00 1012.7
20260508081500 -17 238 8.0 12.9 0.00 0.03 0.00 1012.7
20260508081001 -17 198 6.4 16.1 0.00 0.03 0.00 1012.9
20260508080502 -17 220 8.0 22.5 0.00 0.03 0.00 1012.9
20260508080006 -17 213 12.9 22.5 0.00 0.03 0.00 1013.0
20260508075501 -17 208 9.7 24.1 0.00 0.03 0.00 1013.0
20260508075000 -17 237 14.5 35.4 0.00 0.03 0.00 1012.8
20260508074502 -17 233 22.5 35.4 0.00 0.03 0.00 1013.0
20260508072959 -17 232 16.1 24.1 0.00 0.03 0.00 1013.3
20260508072501 -17 228 12.9 20.9 0.00 0.03 0.00 1013.3
20260508072000 -17 240 9.7 17.7 0.00 0.03 0.00 1013.3
20260508071500 -17 215 9.7 17.7 0.00 0.03 0.00 1013.3
20260508070459 -17 261 9.7 17.7 0.00 0.03 0.00 1013.2
20260508070005 -17 243 11.3 17.7 0.00 0.03 0.00 1013.2
20260508065000 -17 238 9.7 20.9 0.00 0.03 0.00 1013.1